STARLINK-38360, 100517

Orbit data source: Space-Track

STARLINK-38360, 100517 is a payload satellite owned by SpaceX/Seattle (US) in LEO that was launched on Wed, 26 Aug 2026 UTC launched from the Air Force Western Test Range (AFWTR). Payload-class satellites include a variety of spacecraft equipped with specific instruments for various scientific and technological missions. These include communications satellites like Starlink; space stations such as the ISS; scientific satellites like the Hubble; Earth observation satellites from companies like Planet Labs, Umbra, and HawkEye 360; GPS; miniature CubeSats for education and research; and military/defense satellites.

Loading next visibility...
Identifier
100517, 2026-197R
Orbit
LEO
Country
Flag of USUS
Related business
Manufacturer
SpaceX/Seattle
Mission
Operational spacecraft
Bus & Motor
STARLINK V2MO, Unknown motor
Mass
575 kg wet, ~530 kg dry
Launch date (UTC)
2026-08-26 (2 weeks ago)
Launch vehicle
Unknown
Launch site
Air Force Western Test Range (AFWTR)
Object type
Payload
Rocket body
Debris
Shape & HBR
BOX + PAN, 17.7 m
Radar Cross Section
RCS unknown

Expand to show TLE details & history
Last TLE update: 9 hours ago

TLE from 9 hours ago
0 STARLINK-38360
1 A0517U 26197R   26251.43294767  .00192874  00000-0  91601-3 0  9997
2 A0517  69.9986 156.0745 0003898 267.5594  92.5162 15.82233239  2089
Epoch: 2026-09-08T10:23Z
TLE epoch observation values (Epoch: 2026-09-08T10:23:26.678Z)
Latitude
-0.00001°
Longitude
12.7139°
Altitude
326.756 km
Speed
7.713 km/s
True Right ascension
10h 24m 17s
True Declination
0° 00' 00"
Sunlit
Object was in daylight at epoch
Visualization orbit readout
Latitude
Unknown
Longitude
Unknown
Altitude
Unknown
Speed
Unknown
Apparent Right ascension
Unknown
Apparent Declination
Unknown
Sunlit
N/A
Visualization observer readout
Local Sidereal Time
11:41:03
Azimuth
Unknown
Elevation
Unknown
Doppler factor
Unknown
Orbital elements
Apogee altitude
324.611 km
Perigee altitude
319.387 km
Semi-major axis
6,700.136 km
Eccentricity
0.00039
Inclination
69.9986°
RAAN
156.0745°
Arg. of periapsis
267.5594°
True anomaly
92.56082°
Mean anomaly
92.5162°
Eccentric anomaly
92.53851°
Mean motion
3.95747 °/min
Orbital period
90.97 mins
BSTAR
0.00091601
Loading maneuver chart data...
Computing Atmospheric mass density...
Loading historical data...
Loading historical data...
Loading historical data...
Loading historical data...
Loading historical data...
Loading historical data...
Loading historical data...

Documentation

Showing up to 5 results
|